| time (UTC) | temp F | wind direction | speed MPH | gust MPH | rain 1hr in | rain 24hr in | rain mn in | humidity % | barometer mb |
| 20260507051443 | 64 | 271 | 1.0 | 3.0 | 0.00 | 0.00 | 0.36 | 95 | 1014.5 |
| 20260507050940 | 64 | 240 | 0.0 | 1.0 | 0.00 | 0.00 | 0.30 | 95 | 1014.9 |
| 20260507050439 | 64 | 0 | 0.0 | 1.0 | 0.00 | 0.00 | 0.22 | 95 | 1015.0 |
| 20260507045937 | 64 | 0 | 0.0 | 1.0 | 0.00 | 0.00 | 0.20 | 95 | 1014.7 |
| 20260507045513 | 64 | 0 | 0.0 | 0.0 | 0.00 | 0.00 | 0.15 | 95 | 1014.8 |
| 20260507044934 | 64 | 0 | 0.0 | 1.0 | 0.00 | 0.00 | 0.12 | 95 | 1014.8 |
| 20260507044438 | 64 | 0 | 0.0 | 1.0 | 0.00 | 0.00 | 0.07 | 95 | 1014.4 |
| 20260507043942 | 64 | 0 | 0.0 | 1.0 | 0.00 | 0.00 | 0.05 | 95 | 1014.7 |
| 20260507043435 | 64 | 0 | 0.0 | 3.0 | 0.00 | 0.00 | 0.03 | 95 | 1014.6 |
| 20260507042935 | 64 | 0 | 0.0 | 3.0 | 0.00 | 0.00 | 0.02 | 95 | 1014.5 |
| 20260507042440 | 64 | 0 | 0.0 | 3.0 | 0.00 | 0.00 | 0.01 | 95 | 1014.4 |
| 20260507041941 | 64 | 215 | 2.0 | 2.0 | 0.00 | 0.00 | 0.01 | 95 | 1014.5 |
| 20260507041438 | 64 | 207 | 1.0 | 2.0 | 0.00 | 0.00 | 0.01 | 95 | 1014.5 |
| 20260507040938 | 64 | 0 | 0.0 | 2.0 | 0.00 | 0.00 | 0.00 | 95 | 1014.5 |
| 20260507040437 | 64 | 0 | 0.0 | 3.0 | 0.00 | 0.00 | 0.00 | 95 | 1014.9 |
| 20260507035939 | 64 | 0 | 0.0 | 3.0 | 0.00 | 0.00 | 1.34 | 95 | 1014.9 |
| 20260507035439 | 64 | 229 | 1.0 | 2.0 | 0.00 | 0.00 | 1.34 | 95 | 1014.9 |
| 20260507034940 | 64 | 0 | 0.0 | 2.0 | 0.00 | 0.00 | 1.33 | 95 | 1015.4 |
| 20260507034437 | 64 | 0 | 0.0 | 2.0 | 0.00 | 0.00 | 1.32 | 95 | 1015.2 |
| 20260507033940 | 64 | 0 | 0.0 | 2.0 | 0.00 | 0.00 | 1.30 | 95 | 1014.9 |
| 20260507033443 | 64 | 173 | 1.0 | 2.0 | 0.00 | 0.00 | 1.23 | 95 | 1015.3 |
| 20260507032941 | 65 | 190 | 0.0 | 6.0 | 0.00 | 0.00 | 1.18 | 95 | 1015.2 |
| 20260507032441 | 65 | 193 | 1.0 | 6.0 | 0.00 | 0.00 | 1.17 | 94 | 1014.9 |
| 20260507031942 | 65 | 0 | 0.0 | 4.0 | 0.00 | 0.00 | 1.14 | 94 | 1014.8 |
| 20260507031442 | 65 | 0 | 0.0 | 4.0 | 0.00 | 0.00 | 1.09 | 95 | 1014.9 |
| 20260507030936 | 65 | 0 | 0.0 | 4.0 | 0.00 | 0.00 | 1.01 | 94 | 1015.0 |
| 20260507030439 | 65 | 235 | 2.0 | 3.0 | 0.00 | 0.00 | 1.00 | 94 | 1014.9 |
| 20260507025937 | 65 | 0 | 0.0 | 1.0 | 0.00 | 0.00 | 0.93 | 94 | 1015.4 |
| 20260507025438 | 66 | 190 | 0.0 | 3.0 | 0.00 | 0.00 | 0.75 | 94 | 1015.7 |
| 20260507024937 | 65 | 0 | 0.0 | 3.0 | 0.00 | 0.00 | 0.71 | 94 | 1014.7 |
| 20260507024435 | 65 | 246 | 3.0 | 3.0 | 0.00 | 0.00 | 0.70 | 94 | 1014.9 |
| 20260507023938 | 65 | 0 | 0.0 | 2.0 | 0.00 | 0.00 | 0.69 | 94 | 1015.0 |
| 20260507023441 | 66 | 195 | 0.0 | 6.0 | 0.00 | 0.00 | 0.69 | 93 | 1014.9 |
| 20260507022941 | 66 | 186 | 2.0 | 7.0 | 0.00 | 0.00 | 0.69 | 93 | 1014.8 |
| 20260507022441 | 66 | 250 | 2.0 | 7.0 | 0.00 | 0.00 | 0.68 | 93 | 1014.7 |
| 20260507021938 | 66 | 208 | 1.0 | 3.0 | 0.00 | 0.00 | 0.66 | 93 | 1014.8 |
| 20260507021443 | 67 | 181 | 1.0 | 1.0 | 0.00 | 0.00 | 0.65 | 94 | 1014.6 |
| 20260507020939 | 67 | 0 | 0.0 | 2.0 | 0.00 | 0.00 | 0.65 | 93 | 1014.7 |
| 20260507020437 | 67 | 0 | 0.0 | 3.0 | 0.00 | 0.00 | 0.65 | 93 | 1014.6 |
| 20260507020036 | 68 | 0 | 0.0 | 6.0 | 0.00 | 0.00 | 0.64 | 93 | 1014.2 |
| 20260507015540 | 69 | 219 | 1.0 | 6.0 | 0.00 | 0.00 | 0.61 | 93 | 1014.3 |
| 20260507015123 | 70 | 204 | 0.0 | 4.0 | 0.00 | 0.00 | 0.52 | 94 | 1014.9 |
| 20260507014438 | 70 | 0 | 0.0 | 1.0 | 0.00 | 0.00 | 0.51 | 95 | 1014.7 |
| 20260507013941 | 70 | 0 | 0.0 | 0.0 | 0.00 | 0.00 | 0.51 | 95 | 1014.3 |
| 20260507013440 | 70 | 0 | 0.0 | 0.0 | 0.00 | 0.00 | 0.51 | 95 | 1014.2 |
| 20260507012938 | 70 | 0 | 0.0 | 1.0 | 0.00 | 0.00 | 0.51 | 94 | 1014.4 |
| 20260507012438 | 70 | 0 | 0.0 | 1.0 | 0.00 | 0.00 | 0.51 | 94 | 1014.3 |
| 20260507011939 | 70 | 0 | 0.0 | 1.0 | 0.00 | 0.00 | 0.46 | 94 | 1014.3 |
| 20260507011437 | 70 | 0 | 0.0 | 1.0 | 0.00 | 0.00 | 0.38 | 94 | 1014.4 |
| 20260507010939 | 70 | 0 | 0.0 | 0.0 | 0.00 | 0.00 | 0.38 | 94 | 1014.3 |
| 20260507010441 | 70 | 0 | 0.0 | 0.0 | 0.00 | 0.00 | 0.38 | 94 | 1014.3 |
| 20260507005944 | 70 | 0 | 0.0 | 0.0 | 0.00 | 0.00 | 0.38 | 94 | 1014.1 |
| 20260507005437 | 70 | 0 | 0.0 | 1.0 | 0.00 | 0.00 | 0.34 | 94 | 1014.3 |
| 20260507004941 | 70 | 0 | 0.0 | 1.0 | 0.00 | 0.00 | 0.32 | 93 | 1014.5 |
| 20260507004436 | 70 | 0 | 0.0 | 0.0 | 0.00 | 0.00 | 0.30 | 93 | 1014.1 |
| 20260507003937 | 70 | 0 | 0.0 | 0.0 | 0.00 | 0.00 | 0.29 | 93 | 1014.2 |
| 20260507003441 | 70 | 0 | 0.0 | 0.0 | 0.00 | 0.00 | 0.29 | 92 | 1014.3 |
| 20260507002940 | 70 | 0 | 0.0 | 0.0 | 0.00 | 0.00 | 0.28 | 92 | 1014.2 |
| 20260507002437 | 70 | 0 | 0.0 | 0.0 | 0.00 | 0.00 | 0.28 | 92 | 1014.4 |
| 20260507001937 | 70 | 0 | 0.0 | 0.0 | 0.00 | 0.00 | 0.28 | 91 | 1014.2 |
| 20260507001437 | 70 | 0 | 0.0 | 0.0 | 0.00 | 0.00 | 0.28 | 91 | 1014.3 |
| 20260507000937 | 70 | 0 | 0.0 | 1.0 | 0.00 | 0.00 | 0.28 | 91 | 1014.2 |
| 20260507000436 | 70 | 0 | 0.0 | 1.0 | 0.00 | 0.00 | 0.28 | 90 | 1014.3 |
| 20260506235941 | 71 | 0 | 0.0 | 1.0 | 0.00 | 0.00 | 0.27 | 89 | 1014.2 |
| 20260506235437 | 71 | 0 | 0.0 | 0.0 | 0.00 | 0.00 | 0.19 | 89 | 1014.4 |
| 20260506234939 | 71 | 0 | 0.0 | 0.0 | 0.00 | 0.00 | 0.17 | 88 | 1014.4 |
| 20260506234437 | 72 | 0 | 0.0 | 1.0 | 0.00 | 0.00 | 0.16 | 87 | 1014.2 |
| 20260506233936 | 72 | 0 | 0.0 | 3.0 | 0.00 | 0.00 | 0.14 | 85 | 1014.1 |
| 20260506233442 | 73 | 0 | 0.0 | 3.0 | 0.00 | 0.00 | 0.12 | 83 | 1014.0 |
| 20260506232936 | 75 | 150 | 2.0 | 2.0 | 0.00 | 0.00 | 0.05 | 78 | 1014.1 |
| 20260506232439 | 77 | 0 | 0.0 | 5.0 | 0.00 | 0.00 | 0.01 | 75 | 1013.7 |
| 20260506231940 | 77 | 0 | 0.0 | 5.0 | 0.00 | 0.00 | 0.00 | 72 | 1013.4 |
| 20260506231437 | 78 | 237 | 0.0 | 3.0 | 0.00 | 0.00 | 0.00 | 71 | 1013.0 |
| 20260506230940 | 78 | 202 | 1.0 | 2.0 | 0.00 | 0.00 | 0.00 | 70 | 1013.1 |
| 20260506230440 | 78 | 201 | 1.0 | 2.0 | 0.00 | 0.00 | 0.00 | 70 | 1013.2 |
| 20260506225942 | 78 | 0 | 0.0 | 3.0 | 0.00 | 0.00 | 0.00 | 70 | 1013.3 |
| 20260506225441 | 78 | 225 | 0.0 | 3.0 | 0.00 | 0.00 | 0.00 | 70 | 1013.2 |
| 20260506224942 | 78 | 213 | 1.0 | 3.0 | 0.00 | 0.00 | 0.00 | 69 | 1013.5 |
| 20260506224441 | 78 | 248 | 1.0 | 3.0 | 0.00 | 0.00 | 0.00 | 69 | 1013.7 |
| 20260506223936 | 78 | 191 | 1.0 | 4.0 | 0.00 | 0.00 | 0.00 | 69 | 1013.8 |
| 20260506223438 | 79 | 162 | 1.0 | 4.0 | 0.00 | 0.00 | 0.00 | 68 | 1013.9 |
| 20260506222944 | 79 | 184 | 1.0 | 3.0 | 0.00 | 0.00 | 0.00 | 68 | 1014.0 |
| 20260506222436 | 79 | 238 | 3.0 | 2.0 | 0.00 | 0.00 | 0.00 | 68 | 1013.8 |
| 20260506221944 | 79 | 198 | 0.0 | 2.0 | 0.00 | 0.00 | 0.00 | 67 | 1013.6 |
| 20260506221437 | 79 | 168 | 1.0 | 2.0 | 0.00 | 0.00 | 0.00 | 67 | 1013.7 |
| 20260506220945 | 79 | 181 | 0.0 | 2.0 | 0.00 | 0.00 | 0.00 | 66 | 1013.7 |
| 20260506220442 | 80 | 198 | 2.0 | 2.0 | 0.00 | 0.00 | 0.00 | 66 | 1013.6 |
| 20260506215940 | 80 | 186 | 1.0 | 2.0 | 0.00 | 0.00 | 0.00 | 66 | 1013.7 |
| 20260506215439 | 80 | 187 | 1.0 | 3.0 | 0.00 | 0.00 | 0.00 | 66 | 1013.6 |
| 20260506214942 | 80 | 0 | 0.0 | 4.0 | 0.00 | 0.00 | 0.00 | 65 | 1013.7 |
| 20260506214440 | 80 | 172 | 3.0 | 4.0 | 0.00 | 0.00 | 0.00 | 66 | 1013.6 |
| 20260506213944 | 80 | 182 | 1.0 | 3.0 | 0.00 | 0.00 | 0.00 | 65 | 1013.6 |
| 20260506213439 | 80 | 173 | 1.0 | 4.0 | 0.00 | 0.00 | 0.00 | 64 | 1013.5 |
| 20260506212940 | 81 | 183 | 1.0 | 4.0 | 0.00 | 0.00 | 0.00 | 64 | 1013.6 |
| 20260506212437 | 81 | 0 | 0.0 | 5.0 | 0.00 | 0.00 | 0.00 | 65 | 1013.6 |
| 20260506211937 | 80 | 154 | 1.0 | 5.0 | 0.00 | 0.00 | 0.00 | 65 | 1013.5 |
| 20260506211437 | 80 | 0 | 0.0 | 6.0 | 0.00 | 0.00 | 0.00 | 64 | 1013.6 |
| 20260506210944 | 80 | 189 | 2.0 | 6.0 | 0.00 | 0.00 | 0.00 | 64 | 1013.8 |
| 20260506210437 | 80 | 216 | 3.0 | 4.0 | 0.00 | 0.00 | 0.00 | 63 | 1013.6 |
| 20260506205940 | 80 | 0 | 0.0 | 8.0 | 0.00 | 0.00 | 0.00 | 63 | 1013.7 |
| 20260506205443 | 80 | 200 | 1.0 | 9.0 | 0.00 | 0.00 | 0.00 | 63 | 1013.9 |
| 20260506204939 | 80 | 225 | 1.0 | 9.0 | 0.00 | 0.00 | 0.00 | 62 | 1013.9 |
| 20260506204436 | 80 | 190 | 1.0 | 5.0 | 0.00 | 0.00 | 0.00 | 62 | 1014.1 |
| 20260506203937 | 81 | 210 | 1.0 | 5.0 | 0.00 | 0.00 | 0.00 | 62 | 1014.2 |
| 20260506203438 | 81 | 174 | 1.0 | 5.0 | 0.00 | 0.00 | 0.00 | 62 | 1014.1 |
| 20260506202937 | 81 | 193 | 2.0 | 5.0 | 0.00 | 0.00 | 0.00 | 61 | 1014.3 |
| 20260506202438 | 81 | 0 | 0.0 | 3.0 | 0.00 | 0.00 | 0.00 | 62 | 1014.4 |
| 20260506201941 | 81 | 116 | 3.0 | 2.0 | 0.00 | 0.00 | 0.00 | 61 | 1014.1 |
| 20260506201442 | 81 | 169 | 1.0 | 2.0 | 0.00 | 0.00 | 0.00 | 61 | 1014.3 |
| 20260506200941 | 81 | 0 | 0.0 | 4.0 | 0.00 | 0.00 | 0.00 | 62 | 1014.4 |
| 20260506200440 | 81 | 190 | 1.0 | 4.0 | 0.00 | 0.00 | 0.00 | 63 | 1014.4 |
| 20260506195941 | 81 | 223 | 0.0 | 4.0 | 0.00 | 0.00 | 0.00 | 63 | 1014.7 |
| 20260506195441 | 81 | 254 | 1.0 | 5.0 | 0.00 | 0.00 | 0.00 | 62 | 1014.7 |
| 20260506194939 | 81 | 204 | 1.0 | 6.0 | 0.00 | 0.00 | 0.00 | 63 | 1014.9 |
| 20260506194440 | 81 | 0 | 0.0 | 7.0 | 0.00 | 0.00 | 0.00 | 63 | 1015.1 |
| 20260506193940 | 81 | 98 | 3.0 | 7.0 | 0.00 | 0.00 | 0.00 | 63 | 1015.3 |
| 20260506193443 | 81 | 179 | 1.0 | 5.0 | 0.00 | 0.00 | 0.00 | 62 | 1015.2 |
| 20260506192940 | 80 | 199 | 1.0 | 5.0 | 0.00 | 0.00 | 0.00 | 62 | 1015.2 |
| 20260506192440 | 81 | 90 | 3.0 | 5.0 | 0.00 | 0.00 | 0.00 | 62 | 1015.3 |
| 20260506191942 | 81 | 188 | 1.0 | 5.0 | 0.00 | 0.00 | 0.00 | 61 | 1015.4 |
| 20260506191438 | 82 | 154 | 2.0 | 5.0 | 0.00 | 0.00 | 0.00 | 63 | 1015.5 |
| 20260506190940 | 81 | 169 | 1.0 | 6.0 | 0.00 | 0.00 | 0.00 | 63 | 1015.6 |
| 20260506190440 | 81 | 181 | 1.0 | 6.0 | 0.00 | 0.00 | 0.00 | 62 | 1015.7 |
| 20260506185942 | 81 | 220 | 1.0 | 4.0 | 0.00 | 0.00 | 0.00 | 62 | 1016.0 |
| 20260506185443 | 81 | 241 | 2.0 | 6.0 | 0.00 | 0.00 | 0.00 | 61 | 1016.1 |
| 20260506184938 | 82 | 250 | 2.0 | 6.0 | 0.00 | 0.00 | 0.00 | 60 | 1015.9 |
| 20260506184438 | 82 | 262 | 2.0 | 3.0 | 0.00 | 0.00 | 0.00 | 60 | 1015.9 |
| 20260506183939 | 82 | 212 | 0.0 | 4.0 | 0.00 | 0.00 | 0.00 | 61 | 1016.0 |
| 20260506183442 | 83 | 147 | 3.0 | 4.0 | 0.00 | 0.00 | 0.00 | 59 | 1016.1 |
| 20260506182943 | 83 | 238 | 3.0 | 5.0 | 0.00 | 0.00 | 0.00 | 60 | 1016.1 |
| 20260506182439 | 82 | 184 | 2.0 | 5.0 | 0.00 | 0.00 | 0.00 | 59 | 1016.1 |
| 20260506181939 | 82 | 0 | 0.0 | 5.0 | 0.00 | 0.00 | 0.00 | 58 | 1016.3 |
| 20260506181438 | 81 | 195 | 1.0 | 7.0 | 0.00 | 0.00 | 0.00 | 62 | 1016.4 |
| 20260506180938 | 81 | 200 | 2.0 | 7.0 | 0.00 | 0.00 | 0.00 | 60 | 1016.1 |
| 20260506180437 | 82 | 220 | 1.0 | 5.0 | 0.00 | 0.00 | 0.00 | 61 | 1016.0 |
| 20260506175939 | 81 | 224 | 0.0 | 4.0 | 0.00 | 0.00 | 0.00 | 63 | 1016.1 |
| 20260506175438 | 81 | 248 | 0.0 | 4.0 | 0.00 | 0.00 | 0.00 | 62 | 1016.2 |
| 20260506174941 | 81 | 283 | 3.0 | 5.0 | 0.00 | 0.00 | 0.00 | 61 | 1016.1 |
| 20260506174441 | 81 | 232 | 2.0 | 5.0 | 0.00 | 0.00 | 0.00 | 62 | 1016.0 |
| 20260506173940 | 81 | 185 | 1.0 | 5.0 | 0.00 | 0.00 | 0.00 | 61 | 1015.8 |
| 20260506173442 | 81 | 235 | 1.0 | 5.0 | 0.00 | 0.00 | 0.00 | 62 | 1015.7 |
| 20260506172943 | 81 | 184 | 1.0 | 3.0 | 0.00 | 0.00 | 0.00 | 62 | 1015.7 |
| 20260506172443 | 80 | 183 | 2.0 | 5.0 | 0.00 | 0.00 | 0.00 | 63 | 1015.7 |
| 20260506171939 | 80 | 0 | 0.0 | 5.0 | 0.00 | 0.00 | 0.00 | 64 | 1015.8 |
| 20260506171442 | 80 | 240 | 1.0 | 3.0 | 0.00 | 0.00 | 0.00 | 63 | 1016.1 |
| 20260506170939 | 80 | 220 | 1.0 | 5.0 | 0.00 | 0.00 | 0.00 | 62 | 1016.2 |
| 20260506170437 | 80 | 179 | 0.0 | 5.0 | 0.00 | 0.00 | 0.00 | 63 | 1016.2 |
| 20260506165940 | 80 | 217 | 1.0 | 9.0 | 0.00 | 0.00 | 0.00 | 62 | 1016.1 |
| 20260506165442 | 80 | 115 | 2.0 | 9.0 | 0.00 | 0.00 | 0.00 | 62 | 1016.0 |
| 20260506164942 | 81 | 229 | 2.0 | 4.0 | 0.00 | 0.00 | 0.00 | 63 | 1016.2 |
| 20260506164441 | 80 | 0 | 0.0 | 4.0 | 0.00 | 0.00 | 0.00 | 61 | 1016.4 |
| 20260506163938 | 80 | 202 | 0.0 | 4.0 | 0.00 | 0.00 | 0.00 | 62 | 1016.4 |
| 20260506163443 | 80 | 183 | 2.0 | 4.0 | 0.00 | 0.00 | 0.00 | 64 | 1016.4 |
| 20260506162943 | 79 | 178 | 1.0 | 3.0 | 0.00 | 0.00 | 0.00 | 63 | 1016.5 |
| 20260506162442 | 79 | 171 | 0.0 | 3.0 | 0.00 | 0.00 | 0.00 | 64 | 1016.7 |
| 20260506161939 | 78 | 0 | 0.0 | 5.0 | 0.00 | 0.00 | 0.00 | 65 | 1016.7 |
| 20260506161439 | 77 | 0 | 0.0 | 6.0 | 0.00 | 0.00 | 0.00 | 67 | 1016.8 |
| 20260506160940 | 77 | 273 | 4.0 | 6.0 | 0.00 | 0.00 | 0.00 | 67 | 1016.6 |
| 20260506160440 | 76 | 191 | 2.0 | 5.0 | 0.00 | 0.00 | 0.00 | 67 | 1016.6 |
| 20260506155937 | 75 | 215 | 1.0 | 5.0 | 0.00 | 0.00 | 0.00 | 69 | 1016.8 |
| 20260506155440 | 74 | 179 | 1.0 | 4.0 | 0.00 | 0.00 | 0.00 | 69 | 1016.9 |
| 20260506154938 | 74 | 200 | 1.0 | 4.0 | 0.00 | 0.00 | 0.00 | 70 | 1017.0 |
| 20260506154443 | 73 | 165 | 0.0 | 3.0 | 0.00 | 0.00 | 0.00 | 71 | 1017.2 |
| 20260506153937 | 73 | 172 | 1.0 | 2.0 | 0.00 | 0.00 | 0.00 | 71 | 1017.0 |
| 20260506153438 | 72 | 186 | 0.0 | 3.0 | 0.00 | 0.00 | 0.00 | 72 | 1017.1 |
| 20260506152936 | 72 | 170 | 1.0 | 3.0 | 0.00 | 0.00 | 0.00 | 72 | 1017.3 |
| 20260506152441 | 72 | 122 | 1.0 | 3.0 | 0.00 | 0.00 | 0.00 | 72 | 1017.4 |
| 20260506151936 | 72 | 162 | 0.0 | 2.0 | 0.00 | 0.00 | 0.00 | 72 | 1017.0 |
| 20260506151437 | 72 | 0 | 0.0 | 3.0 | 0.00 | 0.00 | 0.00 | 73 | 1017.2 |
| 20260506150938 | 72 | 155 | 0.0 | 3.0 | 0.00 | 0.00 | 0.00 | 72 | 1017.3 |
| 20260506150441 | 72 | 202 | 0.0 | 2.0 | 0.00 | 0.00 | 0.00 | 72 | 1017.4 |
| 20260506145940 | 72 | 165 | 1.0 | 2.0 | 0.00 | 0.00 | 0.00 | 73 | 1017.3 |
| 20260506145437 | 72 | 0 | 0.0 | 2.0 | 0.00 | 0.00 | 0.00 | 73 | 1017.2 |
| 20260506144940 | 72 | 190 | 2.0 | 2.0 | 0.00 | 0.00 | 0.00 | 72 | 1017.2 |
| 20260506144440 | 72 | 188 | 1.0 | 1.0 | 0.00 | 0.00 | 0.00 | 73 | 1017.3 |
| 20260506143938 | 72 | 0 | 0.0 | 2.0 | 0.00 | 0.00 | 0.00 | 74 | 1017.3 |
| 20260506143436 | 71 | 0 | 0.0 | 2.0 | 0.00 | 0.00 | 0.00 | 75 | 1017.2 |
| 20260506142937 | 71 | 0 | 0.0 | 1.0 | 0.00 | 0.00 | 0.00 | 75 | 1017.3 |
| 20260506142441 | 71 | 191 | 1.0 | 1.0 | 0.00 | 0.00 | 0.00 | 76 | 1017.1 |
| 20260506141942 | 71 | 0 | 0.0 | 0.0 | 0.00 | 0.00 | 0.00 | 77 | 1016.8 |
| 20260506141437 | 70 | 0 | 0.0 | 1.0 | 0.00 | 0.00 | 0.00 | 76 | 1016.7 |
| 20260506140942 | 70 | 0 | 0.0 | 1.0 | 0.00 | 0.00 | 0.00 | 76 | 1016.7 |
| 20260506140440 | 70 | 195 | 1.0 | 1.0 | 0.00 | 0.00 | 0.00 | 77 | 1016.6 |
| 20260506135942 | 70 | 0 | 0.0 | 1.0 | 0.00 | 0.00 | 0.00 | 77 | 1016.7 |
| 20260506135441 | 69 | 0 | 0.0 | 2.0 | 0.00 | 0.00 | 0.00 | 77 | 1016.5 |
| 20260506134942 | 69 | 0 | 0.0 | 2.0 | 0.00 | 0.00 | 0.00 | 77 | 1016.5 |
| 20260506134438 | 70 | 199 | 1.0 | 3.0 | 0.00 | 0.00 | 0.00 | 77 | 1016.3 |
| 20260506133942 | 70 | 0 | 0.0 | 4.0 | 0.00 | 0.00 | 0.00 | 78 | 1016.3 |
| 20260506133437 | 70 | 0 | 0.0 | 4.0 | 0.00 | 0.00 | 0.00 | 77 | 1016.0 |
| 20260506132936 | 69 | 0 | 0.0 | 1.0 | 0.00 | 0.00 | 0.00 | 78 | 1016.3 |
| 20260506132440 | 69 | 0 | 0.0 | 1.0 | 0.00 | 0.00 | 0.00 | 79 | 1016.2 |
| 20260506131943 | 69 | 0 | 0.0 | 2.0 | 0.00 | 0.00 | 0.00 | 79 | 1016.3 |
| 20260506131443 | 69 | 0 | 0.0 | 2.0 | 0.00 | 0.00 | 0.00 | 79 | 1016.1 |
| 20260506130942 | 68 | 234 | 0.0 | 2.0 | 0.00 | 0.00 | 0.00 | 80 | 1016.2 |
| 20260506130442 | 68 | 0 | 0.0 | 4.0 | 0.00 | 0.00 | 0.00 | 80 | 1016.2 |
| 20260506125941 | 68 | 0 | 0.0 | 5.0 | 0.00 | 0.00 | 0.00 | 80 | 1016.3 |
| 20260506125439 | 68 | 245 | 0.0 | 5.0 | 0.00 | 0.00 | 0.00 | 80 | 1016.1 |
| 20260506124940 | 68 | 241 | 3.0 | 4.0 | 0.00 | 0.00 | 0.00 | 80 | 1016.1 |
| 20260506124436 | 68 | 0 | 0.0 | 1.0 | 0.00 | 0.00 | 0.00 | 80 | 1016.0 |
| 20260506123938 | 67 | 0 | 0.0 | 1.0 | 0.00 | 0.00 | 0.00 | 80 | 1016.0 |
| 20260506123441 | 67 | 0 | 0.0 | 4.0 | 0.00 | 0.00 | 0.00 | 80 | 1016.2 |
| 20260506122939 | 67 | 0 | 0.0 | 4.0 | 0.00 | 0.00 | 0.00 | 80 | 1016.1 |
| 20260506122438 | 67 | 0 | 0.0 | 3.0 | 0.00 | 0.00 | 0.00 | 81 | 1016.0 |
| 20260506121937 | 67 | 0 | 0.0 | 1.0 | 0.00 | 0.00 | 0.00 | 81 | 1016.1 |
| 20260506121438 | 67 | 0 | 0.0 | 2.0 | 0.00 | 0.00 | 0.00 | 81 | 1016.1 |
| 20260506120943 | 67 | 0 | 0.0 | 2.0 | 0.00 | 0.00 | 0.00 | 81 | 1016.1 |
| 20260506120436 | 67 | 0 | 0.0 | 1.0 | 0.00 | 0.00 | 0.00 | 81 | 1016.1 |
| 20260506115941 | 67 | 0 | 0.0 | 1.0 | 0.00 | 0.00 | 0.00 | 81 | 1016.0 |
| 20260506115442 | 67 | 0 | 0.0 | 3.0 | 0.00 | 0.00 | 0.00 | 81 | 1016.1 |
| 20260506114938 | 66 | 0 | 0.0 | 3.0 | 0.00 | 0.00 | 0.00 | 81 | 1015.9 |
| 20260506114437 | 66 | 0 | 0.0 | 2.0 | 0.00 | 0.00 | 0.00 | 82 | 1015.7 |
| 20260506113937 | 66 | 0 | 0.0 | 4.0 | 0.00 | 0.00 | 0.00 | 81 | 1015.6 |
| 20260506113443 | 66 | 0 | 0.0 | 4.0 | 0.00 | 0.00 | 0.00 | 81 | 1015.6 |
| 20260506112942 | 66 | 0 | 0.0 | 1.0 | 0.00 | 0.00 | 0.00 | 81 | 1015.7 |
| 20260506112439 | 66 | 0 | 0.0 | 1.0 | 0.00 | 0.00 | 0.00 | 81 | 1015.4 |
| 20260506111942 | 66 | 0 | 0.0 | 1.0 | 0.00 | 0.00 | 0.00 | 81 | 1015.6 |
| 20260506111441 | 66 | 0 | 0.0 | 0.0 | 0.00 | 0.00 | 0.00 | 81 | 1015.7 |
| 20260506110937 | 66 | 0 | 0.0 | 0.0 | 0.00 | 0.00 | 0.00 | 80 | 1015.6 |
| 20260506110436 | 66 | 0 | 0.0 | 2.0 | 0.00 | 0.00 | 0.00 | 80 | 1015.6 |
| 20260506105941 | 66 | 0 | 0.0 | 2.0 | 0.00 | 0.00 | 0.00 | 80 | 1015.2 |
| 20260506105437 | 65 | 0 | 0.0 | 2.0 | 0.00 | 0.00 | 0.00 | 80 | 1015.5 |
| 20260506104938 | 65 | 0 | 0.0 | 2.0 | 0.00 | 0.00 | 0.00 | 80 | 1015.4 |
| 20260506104442 | 65 | 0 | 0.0 | 1.0 | 0.00 | 0.00 | 0.00 | 79 | 1015.3 |
| 20260506103944 | 65 | 0 | 0.0 | 2.0 | 0.00 | 0.00 | 0.00 | 79 | 1015.2 |
| 20260506103438 | 65 | 221 | 1.0 | 2.0 | 0.00 | 0.00 | 0.00 | 79 | 1015.1 |
| 20260506102936 | 65 | 0 | 0.0 | 1.0 | 0.00 | 0.00 | 0.00 | 78 | 1015.2 |
| 20260506102441 | 65 | 0 | 0.0 | 2.0 | 0.00 | 0.00 | 0.00 | 78 | 1014.9 |
| 20260506101939 | 65 | 0 | 0.0 | 2.0 | 0.00 | 0.00 | 0.00 | 78 | 1014.8 |
| 20260506101438 | 65 | 0 | 0.0 | 1.0 | 0.00 | 0.00 | 0.00 | 78 | 1014.8 |
| 20260506100937 | 65 | 218 | 0.0 | 1.0 | 0.00 | 0.00 | 0.00 | 77 | 1014.8 |
| 20260506100440 | 65 | 0 | 0.0 | 1.0 | 0.00 | 0.00 | 0.00 | 77 | 1014.6 |
| 20260506100015 | 65 | 0 | 0.0 | 1.0 | 0.00 | 0.00 | 0.00 | 77 | 1014.7 |
| 20260506095437 | 65 | 0 | 0.0 | 1.0 | 0.00 | 0.00 | 0.00 | 76 | 1014.4 |
| 20260506094943 | 65 | 0 | 0.0 | 2.0 | 0.00 | 0.00 | 0.00 | 76 | 1014.5 |
| 20260506094436 | 65 | 0 | 0.0 | 2.0 | 0.00 | 0.00 | 0.00 | 76 | 1014.7 |
| 20260506093937 | 66 | 0 | 0.0 | 2.0 | 0.00 | 0.00 | 0.00 | 76 | 1014.6 |
| 20260506093435 | 66 | 0 | 0.0 | 2.0 | 0.00 | 0.00 | 0.00 | 75 | 1014.2 |
| 20260506092938 | 66 | 0 | 0.0 | 3.0 | 0.00 | 0.00 | 0.00 | 75 | 1014.2 |
| 20260506092442 | 66 | 250 | 1.0 | 3.0 | 0.00 | 0.00 | 0.00 | 74 | 1014.4 |
| 20260506091938 | 66 | 0 | 0.0 | 3.0 | 0.00 | 0.00 | 0.00 | 74 | 1014.5 |
| 20260506091438 | 66 | 0 | 0.0 | 1.0 | 0.00 | 0.00 | 0.00 | 73 | 1014.5 |
| 20260506090939 | 66 | 0 | 0.0 | 2.0 | 0.00 | 0.00 | 0.00 | 73 | 1014.4 |
| 20260506090437 | 66 | 0 | 0.0 | 2.0 | 0.00 | 0.00 | 0.00 | 72 | 1014.3 |
| 20260506085941 | 66 | 0 | 0.0 | 1.0 | 0.00 | 0.00 | 0.00 | 72 | 1014.5 |
| 20260506085441 | 66 | 0 | 0.0 | 2.0 | 0.00 | 0.00 | 0.00 | 71 | 1014.6 |
| 20260506084937 | 66 | 0 | 0.0 | 2.0 | 0.00 | 0.00 | 0.00 | 71 | 1014.5 |
| 20260506084439 | 66 | 0 | 0.0 | 2.0 | 0.00 | 0.00 | 0.00 | 70 | 1014.5 |
| 20260506083937 | 66 | 224 | 1.0 | 2.0 | 0.00 | 0.00 | 0.00 | 71 | 1014.5 |
| 20260506083439 | 66 | 225 | 1.0 | 2.0 | 0.00 | 0.00 | 0.00 | 70 | 1014.5 |
| 20260506082942 | 66 | 225 | 1.0 | 1.0 | 0.00 | 0.00 | 0.00 | 70 | 1014.4 |
| 20260506082439 | 66 | 0 | 0.0 | 3.0 | 0.00 | 0.00 | 0.00 | 69 | 1014.4 |
| 20260506081939 | 66 | 0 | 0.0 | 3.0 | 0.00 | 0.00 | 0.00 | 69 | 1014.4 |
| 20260506081441 | 66 | 0 | 0.0 | 2.0 | 0.00 | 0.00 | 0.00 | 69 | 1014.4 |
| 20260506080940 | 66 | 234 | 0.0 | 2.0 | 0.00 | 0.00 | 0.00 | 69 | 1014.5 |
| 20260506080437 | 66 | 0 | 0.0 | 1.0 | 0.00 | 0.00 | 0.00 | 68 | 1014.7 |
| 20260506073436 | 67 | 234 | 1.0 | 2.0 | 0.00 | 0.00 | 0.00 | 65 | 1014.7 |
| 20260506072944 | 68 | 0 | 0.0 | 2.0 | 0.00 | 0.00 | 0.00 | 64 | 1014.9 |
| 20260506072435 | 68 | 0 | 0.0 | 2.0 | 0.00 | 0.00 | 0.00 | 64 | 1014.9 |
| 20260506071941 | 68 | 241 | 0.0 | 2.0 | 0.00 | 0.00 | 0.00 | 64 | 1015.0 |
| 20260506071441 | 68 | 0 | 0.0 | 2.0 | 0.00 | 0.00 | 0.00 | 63 | 1015.0 |
| 20260506070940 | 68 | 0 | 0.0 | 2.0 | 0.00 | 0.00 | 0.00 | 63 | 1015.1 |
| 20260506070442 | 68 | 242 | 1.0 | 2.0 | 0.00 | 0.00 | 0.00 | 62 | 1015.1 |
| 20260506062440 | 69 | 0 | 0.0 | 3.0 | 0.00 | 0.00 | 0.00 | 59 | 1015.3 |
| 20260506061938 | 69 | 0 | 0.0 | 4.0 | 0.00 | 0.00 | 0.00 | 59 | 1015.4 |
| 20260506061439 | 69 | 0 | 0.0 | 4.0 | 0.00 | 0.00 | 0.00 | 59 | 1015.3 |
| 20260506060938 | 69 | 217 | 1.0 | 1.0 | 0.00 | 0.00 | 0.00 | 59 | 1015.4 |
| 20260506060439 | 69 | 0 | 0.0 | 3.0 | 0.00 | 0.00 | 0.00 | 58 | 1015.3 |